[[{"header":{"parameterUnit":"m.s-1","parameterCategory":1,"la1":30.2991,"la2":30.254,"lo1":-89.0895,"lo2":-89.0444,"dy":0.0017,"dx":0.0017,"nx":28,"ny":28,"refTime":"2024-05-28T09:00:00:Z","depth":0,"parameterNumber":2,"parameterNumberName":"U-component_of_WINDS"},"data":[0,0,0,0,0,0,0,0,0,0,0,0,0,0,0,0,0,0,0,0,0,0,0,0,0,0,0,0,0,0,0,0,0,0,0,0,0,0,0,0,0,0,0,0,0,0,0,0,0,0,0,0,0,0,0,0,0,0,0.5085,0.5087,0,0.521,0.5211,0.5212,0.5274,0.5274,0.5274,0.5274,0.5401,0.5405,0.5408,0,0,0,0,0,0,0,0,0,0,0,0,0,0.4901,0.4904,0.5085,0.5087,0.5088,0.5209,0.5211,0.5213,0.5274,0.5274,0.5274,0.5274,0.54,0.5404,0.5408,0,0,0,0,0,0,0,0,0,0,0,0,0,0.4998,0.4905,0.5085,0.5134,0.5139,0.5209,0.5211,0.5213,0.5274,0.5274,0.5274,0.5274,0.5399,0.5404,0.5409,0.544,0,0,0.5425,0.5427,0,0,0,0,0,0,0,0,0.4993,0.5005,0.5125,0.513,0.5137,0.5226,0.5193,0.5289,0.5274,0.5223,0.5274,0.5274,0.5343,0.5353,0.5376,0.5446,0.5452,0.5425,0.5428,0.543,0.5432,0,0,0,0,0,0,0,0.4986,0.5,0.5135,0.5126,0.5134,0.5149,0.5163,0.5211,0.5281,0.5227,0.5232,0.5246,0.5346,0.5371,0.538,0.5454,0.5425,0.5429,0.5432,0.5434,0.5555,0.5555,0,0,0,0,0,0,0.4971,0.4994,0.5131,0.5138,0.5063,0.5152,0.5168,0.5197,0.5281,0.5294,0.5246,0.5248,0.5362,0.5374,0.5384,0.5426,0.543,0.5435,0.5438,0.5555,0.5555,0.5555,0,0,0,0,0,0,0.4967,0.4983,0.5126,0.5068,0.5087,0.5155,0.5188,0.52,0.5225,0.5295,0.5308,0.5258,0.5363,0.5377,0.5426,0.5431,0.5437,0.5442,0.5554,0.5555,0.5555,0.551,0,0,0,0,0,0,0.4962,0.4981,0.4994,0.5067,0.509,0.5165,0.5189,0.5202,0.5233,0.5238,0.531,0.5322,0.5364,0.5418,0.5431,0.5438,0.5446,0.5554,0.5554,0.5555,0.5511,0.5508,0.5506,0,0,0,0,0,0.4955,0.4977,0.4994,0.501,0.5107,0.5165,0.5178,0.5226,0.5233,0.5247,0.5292,0.532,0.5428,0.5422,0.5437,0.5447,0.5554,0.5554,0.5555,0.5512,0.5509,0.5506,0,0,0,0,0,0,0.4902,0.4987,0.5008,0.5054,0.5102,0.5175,0.5194,0.5221,0.5268,0.527,0.5327,0.5343,0.5386,0.5421,0.5413,0.5481,0.5494,0.5497,0.5456,0.5454,0.5451,0.5442,0.545,0,0,0,0,0,0.4896,0.4936,0.5008,0.5042,0.5065,0.5125,0.5152,0.5184,0.5236,0.5257,0.5306,0.5355,0.54,0.5429,0.5475,0.5516,0.5533,0.553,0.5527,0.5525,0.5527,0.5551,0.5551,0.5556,0.5556,0.5556,0,0,0.4884,0.4935,0.4957,0.5033,0.5074,0.5113,0.5141,0.5183,0.5213,0.5263,0.5312,0.5349,0.5408,0.5453,0.5475,0.5484,0.5529,0.5525,0.5523,0.5527,0.5552,0.5551,0.555,0.5556,0.5556,0.5556,0,0,0.4882,0.4925,0.4957,0.4997,0.5059,0.5098,0.5106,0.5175,0.5202,0.5251,0.529,0.5326,0.5403,0.5443,0.5474,0.5485,0.5513,0.5498,0.5486,0.5508,0.5508,0.5508,0.5512,0.5512,0.55,0.55,0.55,0,0.4859,0.4921,0.4971,0.501,0.5041,0.5088,0.5121,0.5158,0.5231,0.5252,0.526,0.5357,0.54,0.5454,0.5457,0.548,0.549,0.5491,0.5504,0.5504,0.5505,0.5509,0.5511,0.5498,0.5498,0.5499,0.5499,0,0.4889,0.4931,0.495,0.5019,0.5053,0.5089,0.5144,0.5172,0.5201,0.5239,0.5289,0.5342,0.5398,0.5414,0.5443,0.5472,0.5475,0.5493,0.5507,0.5502,0.5506,0.5509,0.5495,0.5496,0.5497,0.5497,0,0,0.4859,0.4954,0.496,0.4991,0.5062,0.5095,0.5133,0.5188,0.5211,0.5259,0.5292,0.5355,0.5371,0.5406,0.544,0.5459,0.5464,0.5475,0.5477,0.5471,0.5499,0.5486,0.5487,0.5483,0.5483,0.5483,0.5494,0,0.4867,0.4936,0.4982,0.5033,0.5072,0.5116,0.5149,0.5195,0.5232,0.527,0.5311,0.5354,0.5373,0.5394,0.5415,0.5459,0.5471,0.5459,0.5513,0.5515,0.5497,0.5489,0.5476,0.5483,0.5497,0.5497,0.5497,0,0.4886,0.4932,0.4987,0.5052,0.5071,0.5099,0.5153,0.5189,0.5242,0.5267,0.5305,0.5339,0.538,0.539,0.5447,0.5437,0.5462,0.5487,0.5488,0.5496,0.5506,0.5496,0.5487,0.5488,0.5501,0.5501,0.55,0,0.4858,0.4934,0.4977,0.5002,0.508,0.5098,0.5131,0.5185,0.5214,0.5261,0.5281,0.5332,0.5359,0.5398,0.5444,0.5448,0.5496,0.5511,0.5518,0.5517,0.5527,0.5526,0.5521,0.5543,0.5543,0.5543,0.5543,0,0.4862,0.4894,0.4965,0.4991,0.5028,0.5079,0.5114,0.5151,0.5198,0.5231,0.5273,0.5303,0.5363,0.5401,0.5438,0.5479,0.5491,0.5513,0.5522,0.5509,0.5506,0.5526,0.5527,0.5543,0.5543,0.5543,0.5543,0,0.4837,0.4886,0.4936,0.5004,0.5022,0.5046,0.5105,0.5132,0.517,0.5212,0.5225,0.5285,0.5331,0.5382,0.5445,0.547,0.5509,0.5523,0.5491,0.5497,0.5501,0.55,0.551,0.5514,0.5532,0.5531,0.5531,0,0.4837,0.4863,0.4933,0.4959,0.4991,0.5031,0.5062,0.5113,0.5142,0.5204,0.5223,0.5273,0.5315,0.5388,0.5437,0.5486,0.5501,0.5501,0.5508,0.5494,0.5501,0.5498,0.5501,0.5498,0.5498,0.5497,0.5497,0,0.4831,0.4854,0.4896,0.4946,0.4981,0.5023,0.5067,0.5086,0.5145,0.5176,0.5224,0.5257,0.5322,0.537,0.5425,0.5459,0.5488,0.5494,0.5499,0.5486,0.5466,0.5477,0.5485,0.5494,0.5494,0.5495,0.5495,0.5495,0.4819,0.4843,0.4897,0.4942,0.498,0.5019,0.5048,0.5089,0.513,0.5186,0.5213,0.5261,0.5313,0.5389,0.5421,0.5459,0.5468,0.5475,0.5476,0.5477,0.5473,0.546,0.5469,0.547,0.547,0.547,0.547,0,0.4815,0.4851,0.4892,0.4952,0.4987,0.5011,0.506,0.5088,0.5129,0.5175,0.5215,0.5269,0.5316,0.5369,0.5419,0.5439,0.5453,0.545,0.5449,0.5457,0.5463,0.5454,0.5438,0.5438,0.5438,0.5438,0.5438,0.5438,0.4817,0.4859,0.4888,0.4949,0.4985,0.5032,0.5058,0.5094,0.5131,0.5189,0.5228,0.5262,0.531,0.5364,0.5407,0.5422,0.5438,0.5431,0.5449,0.5454,0.5456,0.5459,0.5451,0.5434,0.5434,0.544,0.544,0.544]},{"header":{"parameterUnit":"m.s-1","parameterCategory":1,"la1":30.2991,"la2":30.254,"lo1":-89.0895,"lo2":-89.0444,"dy":0.0017,"dx":0.0017,"nx":28,"ny":28,"refTime":"2024-05-28T09:00:00:Z","depth":0,"parameterNumber":3,"parameterNumberName":"V-component_of_WINDS"},"data":[0,0,0,0,0,0,0,0,0,0,0,0,0,0,0,0,0,0,0,0,0,0,0,0,0,0,0,0,0,0,0,0,0,0,0,0,0,0,0,0,0,0,0,0,0,0,0,0,0,0,0,0,0,0,0,0,0,0,3.211,3.211,0,3.2045,3.2044,3.2043,3.2003,3.2003,3.2003,3.2002,3.1928,3.1926,3.1925,0,0,0,0,0,0,0,0,0,0,0,0,0,3.2195,3.2194,3.211,3.211,3.2109,3.2045,3.2044,3.2043,3.2003,3.2003,3.2003,3.2002,3.1929,3.1927,3.1924,0,0,0,0,0,0,0,0,0,0,0,0,0,3.2147,3.2194,3.211,3.2081,3.2078,3.2045,3.2044,3.2043,3.2003,3.2003,3.2002,3.2002,3.1929,3.1927,3.1924,3.1913,0,0,3.1916,3.1915,0,0,0,0,0,0,0,0,3.215,3.2144,3.2086,3.2083,3.208,3.2032,3.2046,3.1999,3.2003,3.2031,3.2002,3.2002,3.1962,3.1957,3.1945,3.1909,3.1906,3.1916,3.1914,3.1913,3.1912,0,0,0,0,0,0,0,3.2153,3.2146,3.2084,3.2086,3.2081,3.2069,3.2062,3.2037,3.1999,3.2029,3.2026,3.2019,3.196,3.1948,3.1943,3.1905,3.1916,3.1913,3.1912,3.1911,3.1857,3.1857,0,0,0,0,0,0,3.2162,3.2149,3.2086,3.2082,3.2115,3.2068,3.206,3.2047,3.1999,3.1992,3.2019,3.2017,3.1952,3.1946,3.194,3.1924,3.1913,3.191,3.1909,3.1856,3.1857,3.1857,0,0,0,0,0,0,3.2164,3.2157,3.2089,3.2115,3.2105,3.2067,3.2053,3.2046,3.2033,3.1992,3.1984,3.2014,3.1952,3.1944,3.192,3.1921,3.1909,3.1907,3.1856,3.1857,3.1857,3.1891,0,0,0,0,0,0,3.2167,3.2158,3.2154,3.2115,3.2104,3.2072,3.2053,3.2045,3.203,3.2027,3.1985,3.1977,3.1951,3.1925,3.1918,3.1917,3.1904,3.1856,3.1856,3.1857,3.189,3.1893,3.1895,0,0,0,0,0,3.217,3.2165,3.2154,3.2147,3.21,3.2072,3.2066,3.2038,3.203,3.2025,3.1999,3.1979,3.1922,3.1923,3.1914,3.1913,3.1856,3.1856,3.1857,3.1889,3.1892,3.1895,0,0,0,0,0,0,3.2202,3.2159,3.2147,3.213,3.2106,3.2066,3.2059,3.2042,3.2017,3.2015,3.1979,3.197,3.195,3.1929,3.193,3.1899,3.1887,3.1885,3.1914,3.1917,3.1919,3.1924,3.1902,0,0,0,0,0,3.2208,3.2192,3.2154,3.2142,3.2131,3.2098,3.2084,3.2065,3.2037,3.2026,3.1997,3.1969,3.1945,3.193,3.1905,3.1887,3.1877,3.1882,3.1884,3.1887,3.1886,3.1874,3.1876,3.1858,3.1858,3.1858,0,0,3.2219,3.2193,3.2184,3.2148,3.2127,3.2109,3.2089,3.207,3.2056,3.2022,3.1999,3.1977,3.1943,3.1923,3.1912,3.1904,3.1888,3.1887,3.1889,3.1887,3.1875,3.1877,3.1878,3.1859,3.1859,3.1859,0,0,3.2229,3.2209,3.2197,3.2177,3.2146,3.2124,3.2121,3.2084,3.2069,3.2046,3.202,3.2002,3.1961,3.1938,3.1921,3.1924,3.1904,3.1917,3.193,3.1919,3.1921,3.1922,3.1922,3.1923,3.1916,3.1916,3.1916,0,3.2245,3.2219,3.2192,3.2176,3.2161,3.2132,3.2119,3.21,3.2062,3.2051,3.2044,3.1993,3.1968,3.1941,3.1942,3.193,3.1924,3.1921,3.1923,3.1924,3.1924,3.1924,3.1925,3.1918,3.1918,3.1918,3.1917,0,3.2241,3.2223,3.2217,3.2184,3.2168,3.2153,3.2122,3.2109,3.2091,3.207,3.2046,3.2015,3.1984,3.1977,3.1958,3.1947,3.1944,3.193,3.1917,3.1928,3.1928,3.1928,3.192,3.192,3.1919,3.1919,0,0,3.2269,3.2222,3.222,3.2205,3.217,3.2154,3.2138,3.211,3.2099,3.2074,3.2058,3.2025,3.2013,3.1994,3.1972,3.1963,3.1967,3.1951,3.1949,3.1954,3.1953,3.1963,3.1964,3.1955,3.1955,3.1955,3.1956,0,3.2273,3.2245,3.2221,3.2201,3.2184,3.2157,3.2143,3.2118,3.2098,3.2079,3.2054,3.2032,3.2018,3.2006,3.1996,3.1969,3.1966,3.1969,3.1938,3.1937,3.1947,3.1964,3.1974,3.1977,3.1956,3.1956,3.1956,0,3.2275,3.2254,3.2233,3.22,3.2191,3.2179,3.2152,3.2135,3.2106,3.2092,3.2071,3.205,3.2029,3.2019,3.199,3.1992,3.1978,3.1963,3.1962,3.1958,3.1947,3.1959,3.1977,3.1978,3.1955,3.1955,3.1955,0,3.2297,3.2263,3.2246,3.2234,3.2195,3.2187,3.217,3.2141,3.2126,3.2102,3.2091,3.2064,3.2049,3.2027,3.1998,3.1993,3.1972,3.1959,3.1958,3.1959,3.1954,3.1954,3.197,3.1946,3.1946,3.1946,3.1946,0,3.2304,3.2292,3.2256,3.2245,3.2231,3.2203,3.2188,3.2168,3.2144,3.2128,3.2102,3.2087,3.205,3.203,3.2007,3.1986,3.1979,3.1966,3.1959,3.1968,3.1969,3.1957,3.1956,3.1946,3.1946,3.1946,3.1946,0,3.2326,3.2301,3.2281,3.2247,3.2238,3.2229,3.2198,3.2186,3.2165,3.2145,3.2139,3.2104,3.2079,3.2049,3.2013,3.1998,3.1979,3.197,3.199,3.1986,3.1987,3.1987,3.1994,3.1993,3.1971,3.1972,3.1972,0,3.2332,3.2323,3.2289,3.2277,3.2262,3.2244,3.2229,3.2201,3.2186,3.2154,3.2145,3.2119,3.2097,3.2058,3.2029,3.2002,3.1991,3.1996,3.1987,3.1996,3.1991,3.1992,3.199,3.1998,3.1998,3.1998,3.1999,0,3.2346,3.2334,3.2316,3.2293,3.2277,3.2257,3.2235,3.2227,3.2194,3.2178,3.2154,3.2137,3.2103,3.2077,3.2046,3.2026,3.2006,3.2002,3.2,3.2008,3.202,3.2013,3.1996,3.2002,3.2001,3.2001,3.2001,3.2001,3.2359,3.235,3.2325,3.2305,3.2287,3.2268,3.2255,3.2233,3.2214,3.2185,3.2169,3.2145,3.2116,3.2074,3.2055,3.2034,3.2027,3.2024,3.2024,3.2023,3.2026,3.2024,3.2028,3.2028,3.2028,3.2028,3.2028,0,3.2371,3.2355,3.2337,3.2309,3.2293,3.2279,3.2255,3.2241,3.2222,3.2198,3.2178,3.215,3.2125,3.2094,3.2067,3.2056,3.2046,3.205,3.205,3.2045,3.2034,3.2038,3.2058,3.2058,3.2058,3.2058,3.2058,3.2058,3.2376,3.236,3.2345,3.2319,3.2301,3.228,3.2268,3.2249,3.223,3.2202,3.2182,3.2163,3.2136,3.2106,3.2082,3.2074,3.2064,3.2071,3.2059,3.2049,3.2046,3.2044,3.2047,3.2069,3.2069,3.2072,3.2072,3.2072]}]]